This is the latest recevied weather packets stored in our database for station/object K8GLX. If no packets are shown the sender has not sent any weather packets the latest 10 day(s).
| Time | Temp. | Humidity | Pressure | Rain* | Wind** | Luminosity | Snow |
|---|---|---|---|---|---|---|---|
| 1777945029 | 21.11° C | 51% | 1003.5 hPa | 0 mm | - | 0 W/m² | - |
| 1777944869 | 21.11° C | 51% | 1003.5 hPa | 0 mm | - | 0 W/m² | - |
| 1777944429 | 21.67° C | 51% | 1003.4 hPa | 0 mm | - | 0 W/m² | - |
| 1777944144 | 21.67° C | 51% | 1003.5 hPa | 0 mm | - | 0 W/m² | - |
| 1777943829 | 21.67° C | 50% | 1003.2 hPa | 0 mm | - | 0 W/m² | - |
| 1777943541 | 21.67° C | 49% | 1003.1 hPa | 0 mm | - | 0 W/m² | - |
| 1777943229 | 21.67° C | 49% | 1003.1 hPa | 0 mm | - | 0 W/m² | - |
| 1777943071 | 21.67° C | 49% | 1003 hPa | 0 mm | - | 0 W/m² | - |
| 1777942629 | 22.22° C | 48% | 1003 hPa | 0 mm | - | 0 W/m² | - |
| 1777942338 | 22.22° C | 48% | 1002.8 hPa | 0 mm | - | 0 W/m² | - |
| 1777942029 | 22.22° C | 49% | 1003.1 hPa | 0 mm | - | 0 W/m² | - |
| 1777941739 | 22.22° C | 48% | 1002.7 hPa | 0 mm | - | 0 W/m² | - |
| 1777941429 | 22.22° C | 49% | 1002.7 hPa | 0 mm | - | 0 W/m² | - |
| 1777941140 | 22.22° C | 48% | 1002.6 hPa | 0 mm | - | 0 W/m² | - |
| 1777940829 | 22.22° C | 49% | 1002.9 hPa | 0 mm | - | 2 W/m² | - |
| 1777940539 | 22.22° C | 49% | 1002.7 hPa | 0 mm | - | 3 W/m² | - |
| 1777940229 | 22.22° C | 49% | 1002.7 hPa | 0 mm | - | 5 W/m² | - |
| 1777939937 | 22.22° C | 49% | 1002.4 hPa | 0 mm | - | 6 W/m² | - |
| 1777939754 | 22.22° C | 49% | 1002.5 hPa | 0 mm | - | 8 W/m² | - |
| 1777939466 | 22.78° C | 50% | 1002.8 hPa | 0 mm | - | 9 W/m² | - |
| 1777939029 | 22.22° C | 50% | 1002.5 hPa | 0 mm | - | 12 W/m² | - |
| 1777938867 | 22.78° C | 51% | 1002.4 hPa | 0 mm | - | 16 W/m² | - |
| 1777938428 | 22.78° C | 50% | 1002.3 hPa | 0 mm | - | 24 W/m² | - |
| 1777938137 | 22.78° C | 50% | 1002.2 hPa | 0 mm | - | 32 W/m² | - |
| 1777937829 | 22.78° C | 52% | 1002.3 hPa | 0 mm | - | 50 W/m² | - |
* Rain latest hour (hover to see other rain measurements)
** Current wind speed in m/s (hover to see current wind gust speed)